Miscellaneous Local Product
Issued by NWS North Platte, NE

Home | Current Version | Previous Version | Text Only | Print | Product List | Glossary On
Versions: 1 2 3 4 5 6 7 8 9 10 11 12 13 14 15 16 17 18 19 20 21 22 23 24 25 26 27 28 29 30 31 32 33 34 35 36 37 38 39 40 41 42 43 44 45 46 47 48 49 50
000
AXUS43 KLBF 280610
MISLBF


WESTERN AND NORTH CENTRAL NEBRASKA HOURLY WEATHER ROUNDUP
NATIONAL WEATHER SERVICE NORTH PLATTE NE
100 AM CDT MON JUL 28 2014

***STATIONS NOT REPORTING VARIABLES SUCH AS SKY/WEATHER OR
PRESSURE ARE PROVIDED BY THE NEBRASKA DEPARTMENT OF
ROADS...RAWS...AND APRS NETWORKS...AND ARE NOT UNDER
NATIONAL WEATHER SERVICE QUALITY CONTROL***

...OBSERVATIONS IN AND NEAR THE EASTERN PANHANDLE OF NEBRASKA...

CITY           SKY/WX    TMP DP  RH WIND       PRES   REMARKS
PINE RIDGE     CLEAR     58  52  80 NE8       30.32R
CHADRON        CLEAR     60  50  69 N3        30.32R
ALLIANCE       CLEAR     59  48  67 SE5       30.33S
SIDNEY         MOCLDY    65  48  54 SE8       30.35R
WHITECLAY        N/A     61  50  66 E5          N/A
RUSHVILLE        N/A     62  50  64 E14         N/A
GORDON           N/A     61  55  78 E10         N/A
CRESCENT LAKE    N/A     63  46  54 E5          N/A
LISCO            N/A     66  52  59 E3          N/A
BIG SPRINGS      N/A     64  55  74 CALM        N/A
$$

...OBSERVATIONS IN NORTH CENTRAL NEBRASKA...

CITY           SKY/WX    TMP DP  RH WIND       PRES   REMARKS
VALENTINE      CLEAR     60  51  72 NE3       30.31S
THEDFORD       CLEAR     61  53  75 E3        30.33R
AINSWORTH      CLEAR     58  52  80 CALM      30.31R
O`NEILL        CLEAR     58  53  83 NE6       30.30R
ORD            CLEAR     60  55  83 NE5       30.27R
BROKEN BOW     CLEAR     61  53  75 CALM      30.29R
BROWNLEE         N/A     63  51  65 NE8         N/A
SPRINGVIEW       N/A     59  53  80 CALM        N/A
DUNNING          N/A     61  56  82 CALM        N/A
ROSE             N/A     61  59  92 NE5         N/A
NEWPORT          N/A     60  56  87 NE3         N/A
SARGENT          N/A     64  55  73 CALM        N/A
COMSTOCK         N/A     64  58  80 CALM        N/A
CHAMBERS         N/A     59  53  82 CALM        N/A
EWING            N/A     57  53  86 CALM        N/A
$$

...OBSERVATIONS IN SOUTHWEST NEBRASKA AND FAR NORTHEAST COLORADO...

CITY           SKY/WX    TMP DP  RH WIND       PRES   REMARKS
WRAY             N/A     69  47  45 CALM      30.32R
HOLYOKE        FAIR      63  55  77 E7        30.32S
IMPERIAL       PTCLDY    64  51  62 SE3       30.31R
OGALLALA       CLEAR     58  52  78 E3        30.31S
NORTH PLATTE   CLEAR     57  49  74 E3        30.29S
MCCOOK         PTCLDY    65  53  65 CALM      30.27R
LEXINGTON      CLEAR     61  55  80 NE6       30.28R
PAXTON           N/A     61  55  79 CALM        N/A
SUTHERLAND       N/A     58  54  84 CALM        N/A
BRADY            N/A     62  51  67 CALM        N/A
CALLAWAY         N/A     58  54  87 E5          N/A
$$

...SOME WEATHER OBSERVATIONS FROM AROUND THE REGION...

CITY           SKY/WX    TMP DP  RH WIND       PRES   REMARKS
DENVER         MOCLDY    67  57  70 S14       30.36S
LARAMIE        CLEAR     59  49  69 SE9       30.46S
CHEYENNE       PTCLDY    64  46  52 SE12      30.42S
SCOTTSBLUFF    CLEAR     67  50  54 E10       30.32R
RAPID CITY     CLEAR     57  52  83 E5        30.35R
PIERRE         CLEAR     56  53  90 CALM      30.29R
WINNER         FAIR      60  53  77 SE6       30.30R
SIOUX FALLS    CLEAR     59  56  89 NW7       30.23R
OMAHA          CLEAR     64  55  72 NW9       30.20R
GRAND ISLAND   CLEAR     62  57  83 CALM      30.26R
KANSAS CITY    CLEAR     65  58  78 N6        30.15R
WICHITA        PTCLDY    74  55  51 NE7       30.17R
HAYS           CLEAR     66  52  59 NE5       30.24R
LIBERAL        MOCLDY    73  54  49 SE3       30.28S
GOODLAND       CLOUDY    67  51  56 S9        30.31F
$$



USA.gov is the U.S. government's official web portal to all federal, state and local government web resources and services.